Regional Weather Roundup
Issued by NWS Cleveland, OH

Home | Current Version | Previous Version | Graphics & Text | Print | Product List | Glossary On
Versions: 1 2 3 4 5 6 7 8 9 10 11 12 13 14 15 16 17 18 19 20 21 22 23 24 25 26 27 28 29 30 31 32 33 34 35 36 37 38 39 40 41 42 43 44 45 46 47 48 49 50
000
ASUS41 KCLE 050812
RWRCLE
OHIO REGIONAL WEATHER ROUNDUP
NATIONAL WEATHER SERVICE WILMINGTON, OH
400 AM EDT THU MAY 05 2016

NOTE: "FAIR" INDICATES FEW OR NO CLOUDS BELOW 12,000 FEET WITH NO
SIGNIFICANT WEATHER AND/OR OBSTRUCTIONS TO VISIBILITY.

OHZ001>008-015>018-024>027-034-035-043-044-050900-
   NORTHWEST OHIO

CITY           SKY/WX    TMP DP  RH WIND       PRES   REMARKS
DEFIANCE       CLOUDY    43  38  82 NW6       29.75S
FINDLAY        CLOUDY    44  37  76 NW6       29.72S
TOLEDO EXPRESS LGT RAIN  43  42  97 NW5       29.73S
TOLEDO EXEC    LGT RAIN  46  43  89 NW3       29.73S
LIMA           CLOUDY    40  38  93 N7        29.72F
$$

OHZ009>014-019>023-028>033-038-089-050900-
   NORTHEAST OHIO

CITY           SKY/WX    TMP DP  RH WIND       PRES   REMARKS
CLE-HOPKINS    CLOUDY    49  46  90 NW8       29.71S
CLE-LAKEFRONT  CLOUDY    50  48  93 NW9       29.68S
CUY CO. ARPT   NOT AVBL
LORAIN-ELYRIA  CLOUDY    47  44  90 N7        29.70S
ASHTABULA      CLOUDY    48  44  86 CALM      29.68S
AKRON-CANTON   LGT RAIN  49  47  93 NE7       29.67F FOG
WOOSTER        LGT RAIN  45  44  97 NW9       29.68F
MANSFIELD      LGT RAIN  43  43 100 NW3       29.69S
YOUNGSTOWN     LGT RAIN  48  46  93 NW3       29.66F
$$

OHZ042-051>053-060>062-070>072-077>081-050900-
  SOUTHWEST OHIO

CITY           SKY/WX    TMP DP  RH WIND       PRES   REMARKS
CINC-COVINGTON LGT RAIN  42  39  89 NW5       29.71F
CINC-LUNKEN    CLOUDY    43  38  82 NW7       29.73F
HAMILTON       CLOUDY    43  40  89 NW3       29.73F
DAYTON         CLOUDY    39  37  92 N7        29.73S
WRIGHT-PAT AFB CLOUDY    41  39  92 NW5       29.71F
DAYTON GENERAL FAIR      40  35  83 NW6       29.71F
WILMINGTON     CLOUDY    43  36  76 NW5       29.70F
$$

OHZ036-037-039>041-045>050-054>059-063>069-073>076-082>088-050900-
  CENTRAL AND SOUTHEAST OHIO

CITY           SKY/WX    TMP DP  RH WIND       PRES   REMARKS
COLUMBUS       MOCLDY    40  36  86 N3        29.70S
OSU AIRPORT    MOCLDY    39  35  86 NW5       29.70F
BOLTON FIELD   CLOUDY    43  38  84 N6        29.71S
RICKENBACK AFB MOCLDY    42  36  78 N3        29.70S
NEWARK         CLOUDY    42  36  79 NW5       29.69S
MARION         CLOUDY    43  40  89 NW6       29.71F
LANCASTER      FAIR      38  35  89 N3        29.70S
ZANESVILLE     CLOUDY    47  42  83 NW7       29.68F
NEW PHILLY     RAIN      47  45  93 W3        29.68S FOG
$$




USA.gov is the U.S. government's official web portal to all federal, state and local government web resources and services.